Key statistics
Satellite CZ-6A DEB at a glance.
Uptime
189
Days in orbit
Revolutions
≈ 15.9
Per day
Orbit
LEO
Low Earth Orbit
Inclination
89.1
Latest
Satellite identification and parameters
Extended collection of information and parameters for CZ-6A DEB.
Object identification
Identified? True
Debris? True
Object name: CZ-6A DEB
International designator: 2024-140SG
Object number (NORAD): 61271
Object ID (CCSDS): 61271
Country: PEOPLES REPUBLIC OF CHINA (PRC)
Current information (Y/N): Y
RCS size: SMALL
Orbital parameters
Decay date: Feb. 11, 2025
Period: 90.453 minutes
Inclination: 89.1405 deg
SMA: 6674.854 km
Apoapsis: 322.552 km
Periapsis: 270.886 km
RAAN: 332.0457 deg
Eccentricy: 0.0038702
Argument of periapsis: 136.3064 deg
Mean anomaly: 224.1296 deg
Mean motion: 15.91989136 rev/day
Mean motion (dot): 0.08222689 rev/day2
B* drag term: 0.031575 1/REarth
Two-line elements (TLE)
Creation date: Feb. 6, 2025, 3:58 a.m.
Reference frame: TEME
Reference center: EARTH
Epoch: Feb. 5, 2025, 6:27 p.m. UTC
TLE line 0: 0 CZ-6A DEB
TLE line 1: 1 61271U 24140SG 25036.76919755 .08222689 11891+0 31575-1 0 9991
TLE line 2: 2 61271 89.1405 332.0457 0038702 136.3064 224.1296 15.91989136 24434
Live tracking on map
Satellite CZ-6A DEB has decayed and is no longer in orbit. No tracking available.
In-orbit conjunctions
Satellite CZ-6A DEB has decayed and is no longer in orbit. No conjunctions available.
Associated space launch
18 Low Earth Orbit communication satellites with Ku, Q and V band payloads for the G60 constellation operated by Shanghai Spacecom Satellite Technology (SSST) with funding backed by the Shanghai local government. Initial constellation will consist of 1296 satellites by 2027 with long term plans to expand it to 12000 satellites.
CZ-6A DEB was lifted into orbit during the mission ‘Long March 6A | G60 Polar Group 01’, on board a Long March 6A space rocket.
The launch took place on Aug. 6, 2024, 6:42 a.m. from Launch Complex 9A.
For more information about the launch, click the button.
Long March 6A | G60 Polar Group 01
Agency: N/A
Status: Launch Successful
Launch date: Aug. 6, 2024, 6:42 a.m. UTC
Rocket: Long March 6A
Launch pad: Launch Complex 9A
Location: Taiyuan Satellite Launch Center, People's Republic of China
...
Latest news about this satellite
Brightness of first Chinese broadband constellation satellites alarms astronomers
The first satellites of a Chinese broadband constellation are significantly brighter than those of Western systems, posing a new challenge for astronomers.
Chinese rocket stage breaks up into cloud of more than 700 pieces of space debris
HELSINKI — A Chinese Long March 6A rocket’s upper stage has fragmented into a cloud of over 700 pieces of space debris, adding to concerns about long-term orbital safety. China […]
China's Thousand Sails Megaconstellation Kicks Off with Dangerous Debris Field
China's Thousand Sails Megaconstellation Kicks Off with Dangerous Debris Field
Newsletter sign-up
Weekly statistics, charts and insights to help you stay on top of the space industry.
